This is the latest recevied weather packets stored in our database for station/object K2CCS. If no packets are shown the sender has not sent any weather packets the latest 10 day(s).
| Time | Temp. | Humidity | Pressure | Rain* | Wind** | Luminosity | Snow |
|---|---|---|---|---|---|---|---|
| 1777585284 | 12.78° C | 90% | 1010.8 hPa | 0 mm | - | 119 W/m² | - |
| 1777584979 | 12.78° C | 92% | 1010.5 hPa | 0 mm | - | 133 W/m² | - |
| 1777584676 | 12.78° C | 93% | 1010.8 hPa | 0 mm | - | 89 W/m² | - |
| 1777584373 | 12.78° C | 93% | 1010.5 hPa | 0 mm | - | 90 W/m² | - |
| 1777584070 | 12.78° C | 94% | 1010.4 hPa | 0 mm | - | 99 W/m² | - |
| 1777583764 | 12.22° C | 94% | 1010.5 hPa | 0 mm | - | 117 W/m² | - |
| 1777583463 | 12.22° C | 94% | 1010.6 hPa | 0 mm | - | 110 W/m² | - |
| 1777583157 | 12.22° C | 95% | 1010.5 hPa | 0 mm | - | 104 W/m² | - |
| 1777582853 | 12.22° C | 95% | 1010.4 hPa | 0 mm | - | 93 W/m² | - |
| 1777582550 | 12.22° C | 95% | 1010.3 hPa | 0 mm | - | 94 W/m² | - |
| 1777582245 | 12.22° C | 96% | 1010.4 hPa | 0 mm | - | 95 W/m² | - |
| 1777581943 | 11.67° C | 97% | 1010.3 hPa | 0 mm | - | 101 W/m² | - |
| 1777581638 | 11.67° C | 97% | 1010.6 hPa | 0 mm | - | 100 W/m² | - |
| 1777581332 | 11.67° C | 98% | 1010.2 hPa | 0 mm | - | 102 W/m² | - |
| 1777581028 | 12.22° C | 98% | 1010.4 hPa | 0 mm | - | 98 W/m² | - |
| 1777580727 | 11.67° C | 98% | 1010.3 hPa | 0 mm | - | 83 W/m² | - |
| 1777580424 | 11.67° C | 98% | 1010.3 hPa | 0 mm | - | 71 W/m² | - |
| 1777580119 | 11.67° C | 98% | 1010.2 hPa | 0 mm | - | 69 W/m² | - |
| 1777579816 | 11.67° C | 98% | 1010 hPa | 0 mm | - | 72 W/m² | - |
| 1777579515 | 11.67° C | 99% | 1010.1 hPa | 0 mm | - | 67 W/m² | - |
| 1777579209 | 12.22° C | 99% | 1010 hPa | 0 mm | - | 77 W/m² | - |
| 1777578905 | 11.67° C | 99% | 1010.2 hPa | 0 mm | - | 93 W/m² | - |
| 1777578600 | 11.67° C | 99% | 1010.2 hPa | 0 mm | - | 101 W/m² | - |
| 1777578295 | 11.67° C | 99% | 1010.1 hPa | 0 mm | - | 108 W/m² | - |
| 1777577991 | 11.67° C | 98% | 1010 hPa | 0 mm | - | 125 W/m² | - |
* Rain latest hour (hover to see other rain measurements)
** Current wind speed in m/s (hover to see current wind gust speed)